Location: Gorze? G�rny
(49.8500°N, 19.5000°E)
Time: 05:12:26
(UTC+00:00)

Cosmos 1937 Rocket - Pass Details

Date: 13 May 2021
Orbit: 745 x 781 km, 74.0° (Epoch: 20 June)

Event Time Altitude Azimuth Distance (km) Brightness Sun altitude
Exits shadow 20:52:49 30° 173° (S) 1,311 4.2 -17.7°
Maximum altitude 20:55:08 57° 108° (ESE) 883 3.5 -17.8°
Drops below altitude 10° 21:00:13 10° 31° (NNE) 2,291 6.4 -18.2°
Sets 21:02:38 0° 27° (NNE) 3,226 7.3 -18.3°
